Time,TemperatureF,DewpointF,PressureIn,WindDirection,WindDirectionDegrees,WindSpeedMPH,WindSpeedGustMPH,Humidity,HourlyPrecipIn,Conditions,Clouds,dailyrainin,SoftwareType,DateUTC
2013-05-27 00:03:00,81.8,65.1,29.76,SSE,166,16.0,17.0,57,0.00,,---,0.00,VWS V14.01,2013-05-27 05:03:00,
2013-05-27 00:08:00,81.6,64.9,29.76,ESE,117,10.0,17.0,57,0.00,,---,0.00,VWS V14.01,2013-05-27 05:08:00,
2013-05-27 00:13:00,81.5,64.8,29.76,ESE,108,7.0,19.0,57,0.00,,---,0.00,VWS V14.01,2013-05-27 05:13:00,
2013-05-27 00:18:00,81.4,64.2,29.76,SE,145,10.0,19.0,56,0.00,,---,0.00,VWS V14.01,2013-05-27 05:18:00,
2013-05-27 00:23:00,81.3,64.6,29.76,South,181,17.0,19.0,57,0.00,,---,0.00,VWS V14.01,2013-05-27 05:23:00,
2013-05-27 00:28:00,81.1,63.9,29.76,SSE,155,15.0,19.0,56,0.00,,---,0.00,VWS V14.01,2013-05-27 05:28:00,
2013-05-27 00:33:00,81.0,64.3,29.75,ESE,118,14.0,17.0,57,0.00,,---,0.00,VWS V14.01,2013-05-27 05:33:00,
2013-05-27 00:38:00,80.8,64.2,29.75,SSE,148,9.0,18.0,57,0.00,,---,0.00,VWS V14.01,2013-05-27 05:38:00,
2013-05-27 00:44:00,80.7,64.6,29.75,ESE,122,10.0,18.0,58,0.00,,---,0.00,VWS V14.01,2013-05-27 05:44:00,
2013-05-27 00:49:00,80.7,64.6,29.75,SSE,163,20.0,20.0,58,0.00,,---,0.00,VWS V14.01,2013-05-27 05:49:00,
2013-05-27 00:54:00,80.6,65.0,29.75,SE,145,10.0,20.0,59,0.00,,---,0.00,VWS V14.01,2013-05-27 05:54:00,
2013-05-27 00:59:00,80.4,64.8,29.75,SSE,149,13.0,20.0,59,0.00,,---,0.00,VWS V14.01,2013-05-27 05:59:00,
2013-05-27 01:04:00,80.4,64.8,29.75,SE,136,8.0,20.0,59,0.00,,---,0.00,VWS V14.01,2013-05-27 06:04:00,
2013-05-27 01:09:00,80.3,65.2,29.75,ESE,123,12.0,20.0,60,0.00,,---,0.00,VWS V14.01,2013-05-27 06:09:00,
2013-05-27 01:14:00,80.1,65.0,29.75,SE,141,12.0,20.0,60,0.00,,---,0.00,VWS V14.01,2013-05-27 06:14:00,
2013-05-27 01:19:00,79.9,65.3,29.74,SE,143,12.0,20.0,61,0.00,,---,0.00,VWS V14.01,2013-05-27 06:19:00,
2013-05-27 01:24:00,79.8,65.2,29.74,SE,146,12.0,20.0,61,0.00,,---,0.00,VWS V14.01,2013-05-27 06:24:00,
2013-05-27 01:29:00,79.6,65.4,29.74,SE,135,10.0,21.0,62,0.00,,---,0.00,VWS V14.01,2013-05-27 06:29:00,
2013-05-27 01:34:00,79.5,65.3,29.74,SE,132,11.0,20.0,62,0.00,,---,0.00,VWS V14.01,2013-05-27 06:34:00,
2013-05-27 01:39:00,79.4,65.3,29.74,SE,134,11.0,22.0,62,0.00,,---,0.00,VWS V14.01,2013-05-27 06:39:00,
2013-05-27 01:44:00,79.3,65.6,29.74,SE,139,12.0,22.0,63,0.00,,---,0.00,VWS V14.01,2013-05-27 06:44:00,
2013-05-27 01:50:00,79.3,65.6,29.74,SSE,156,12.0,22.0,63,0.00,,---,0.00,VWS V14.01,2013-05-27 06:50:00,
2013-05-27 01:55:00,79.1,65.4,29.73,SE,135,10.0,22.0,63,0.00,,---,0.00,VWS V14.01,2013-05-27 06:55:00,
2013-05-27 02:00:00,79.0,65.8,29.74,SE,131,12.0,22.0,64,0.00,,---,0.00,VWS V14.01,2013-05-27 07:00:00,
2013-05-27 02:05:00,78.9,65.7,29.74,SSE,156,14.0,22.0,64,0.00,,---,0.00,VWS V14.01,2013-05-27 07:05:00,
2013-05-27 02:10:00,78.9,65.7,29.74,SE,135,19.0,22.0,64,0.00,,---,0.00,VWS V14.01,2013-05-27 07:10:00,
2013-05-27 02:15:00,78.7,65.5,29.74,SSE,156,19.0,22.0,64,0.00,,---,0.00,VWS V14.01,2013-05-27 07:15:00,
2013-05-27 02:20:00,78.5,65.8,29.74,SSE,167,11.0,22.0,65,0.00,,---,0.00,VWS V14.01,2013-05-27 07:20:00,
2013-05-27 02:25:00,78.3,65.6,29.74,East,91,13.0,22.0,65,0.00,,---,0.00,VWS V14.01,2013-05-27 07:25:00,
2013-05-27 02:30:00,78.2,65.9,29.74,SE,134,18.0,22.0,66,0.00,,---,0.00,VWS V14.01,2013-05-27 07:30:00,
2013-05-27 02:35:00,78.0,66.2,29.73,SSE,160,9.0,20.0,67,0.00,,---,0.00,VWS V14.01,2013-05-27 07:35:00,
2013-05-27 02:40:00,77.9,66.1,29.73,SSE,155,12.0,20.0,67,0.00,,---,0.00,VWS V14.01,2013-05-27 07:40:00,
2013-05-27 02:45:00,77.8,66.0,29.73,SE,134,12.0,22.0,67,0.00,,---,0.00,VWS V14.01,2013-05-27 07:45:00,
2013-05-27 02:50:00,77.7,66.3,29.73,SSE,160,14.0,22.0,68,0.00,,---,0.00,VWS V14.01,2013-05-27 07:50:00,
2013-05-27 02:55:00,77.6,66.2,29.73,SE,141,11.0,22.0,68,0.00,,---,0.00,VWS V14.01,2013-05-27 07:55:00,
2013-05-27 03:00:00,77.5,66.5,29.73,SE,143,11.0,23.0,69,0.00,,---,0.00,VWS V14.01,2013-05-27 08:00:00,
2013-05-27 03:06:00,77.4,66.4,29.73,SE,124,17.0,21.0,69,0.00,,---,0.00,VWS V14.01,2013-05-27 08:06:00,
2013-05-27 03:11:00,77.2,66.7,29.73,SE,133,9.0,23.0,70,0.00,,---,0.00,VWS V14.01,2013-05-27 08:11:00,
2013-05-27 03:16:00,77.0,66.5,29.73,SE,136,16.0,23.0,70,0.00,,---,0.00,VWS V14.01,2013-05-27 08:16:00,
2013-05-27 03:21:00,76.8,66.7,29.73,SE,141,12.0,23.0,71,0.00,,---,0.00,VWS V14.01,2013-05-27 08:21:00,
2013-05-27 03:26:00,76.7,66.6,29.72,SE,146,11.0,23.0,71,0.00,,---,0.00,VWS V14.01,2013-05-27 08:26:00,
2013-05-27 03:31:00,76.6,66.9,29.72,SSE,148,17.0,17.0,72,0.00,,---,0.00,VWS V14.01,2013-05-27 08:31:00,
2013-05-27 03:36:00,76.5,66.8,29.72,SE,136,15.0,24.0,72,0.00,,---,0.00,VWS V14.01,2013-05-27 08:36:00,
2013-05-27 03:41:00,76.4,66.7,29.72,South,186,13.0,24.0,72,0.00,,---,0.00,VWS V14.01,2013-05-27 08:41:00,
2013-05-27 03:46:00,76.3,66.6,29.72,ESE,117,11.0,24.0,72,0.00,,---,0.00,VWS V14.01,2013-05-27 08:46:00,
2013-05-27 03:51:00,76.1,66.4,29.72,SSE,155,17.0,24.0,72,0.00,,---,0.00,VWS V14.01,2013-05-27 08:51:00,
2013-05-27 03:56:00,76.1,66.4,29.72,SSE,150,17.0,24.0,72,0.00,,---,0.00,VWS V14.01,2013-05-27 08:56:00,
2013-05-27 04:01:00,76.0,66.3,29.71,South,176,9.0,16.0,72,0.00,,---,0.00,VWS V14.01,2013-05-27 09:01:00,
2013-05-27 04:06:00,75.9,66.2,29.71,SE,136,13.0,21.0,72,0.00,,---,0.00,VWS V14.01,2013-05-27 09:06:00,
2013-05-27 04:11:00,75.9,66.2,29.71,SE,140,15.0,25.0,72,0.00,,---,0.00,VWS V14.01,2013-05-27 09:11:00,
2013-05-27 04:16:00,75.8,66.1,29.72,SE,141,12.0,25.0,72,0.00,,---,0.00,VWS V14.01,2013-05-27 09:16:00,
2013-05-27 04:22:00,75.7,66.0,29.72,South,172,16.0,25.0,72,0.00,,---,0.00,VWS V14.01,2013-05-27 09:22:00,
2013-05-27 04:27:00,75.5,65.8,29.72,SE,132,16.0,25.0,72,0.00,,---,0.00,VWS V14.01,2013-05-27 09:27:00,
2013-05-27 04:32:00,75.4,65.8,29.72,SE,146,13.0,20.0,72,0.00,,---,0.00,VWS V14.01,2013-05-27 09:32:00,
2013-05-27 04:37:00,75.2,65.6,29.72,SE,134,17.0,20.0,72,0.00,,---,0.00,VWS V14.01,2013-05-27 09:37:00,
2013-05-27 04:42:00,75.0,65.8,29.72,SSE,159,13.0,20.0,73,0.00,,---,0.00,VWS V14.01,2013-05-27 09:42:00,
2013-05-27 04:47:00,74.9,65.7,29.72,SSE,162,9.0,20.0,73,0.00,,---,0.00,VWS V14.01,2013-05-27 09:47:00,
2013-05-27 04:52:00,74.7,65.5,29.72,SE,145,19.0,21.0,73,0.00,,---,0.00,VWS V14.01,2013-05-27 09:52:00,
2013-05-27 04:57:00,74.6,65.4,29.72,SE,132,12.0,25.0,73,0.00,,---,0.00,VWS V14.01,2013-05-27 09:57:00,
2013-05-27 05:02:00,74.4,65.2,29.72,South,187,11.0,15.0,73,0.00,,---,0.00,VWS V14.01,2013-05-27 10:02:00,
2013-05-27 05:07:00,74.2,65.4,29.72,SE,145,12.0,15.0,74,0.00,,---,0.00,VWS V14.01,2013-05-27 10:07:00,
2013-05-27 05:12:00,74.1,65.3,29.73,SSE,148,8.0,17.0,74,0.00,,---,0.00,VWS V14.01,2013-05-27 10:12:00,
2013-05-27 05:17:00,73.9,65.1,29.72,South,172,11.0,18.0,74,0.00,,---,0.00,VWS V14.01,2013-05-27 10:17:00,
2013-05-27 05:22:00,73.8,65.4,29.72,SSE,150,9.0,18.0,75,0.00,,---,0.00,VWS V14.01,2013-05-27 10:22:00,
2013-05-27 05:28:00,73.7,65.3,29.72,SE,144,10.0,21.0,75,0.00,,---,0.00,VWS V14.01,2013-05-27 10:28:00,
2013-05-27 05:33:00,73.6,65.6,29.72,SSW,204,9.0,14.0,76,0.00,,---,0.00,VWS V14.01,2013-05-27 10:33:00,
2013-05-27 05:38:00,73.4,65.4,29.72,SE,144,8.0,18.0,76,0.00,,---,0.00,VWS V14.01,2013-05-27 10:38:00,
2013-05-27 05:43:00,73.3,65.3,29.72,SE,145,6.0,18.0,76,0.00,,---,0.00,VWS V14.01,2013-05-27 10:43:00,
2013-05-27 05:48:00,73.1,65.5,29.72,ESE,117,8.0,18.0,77,0.00,,---,0.00,VWS V14.01,2013-05-27 10:48:00,
2013-05-27 05:53:00,73.0,65.4,29.72,SE,136,9.0,18.0,77,0.00,,---,0.00,VWS V14.01,2013-05-27 10:53:00,
2013-05-27 05:58:00,72.9,65.7,29.72,SSE,160,10.0,18.0,78,0.00,,---,0.00,VWS V14.01,2013-05-27 10:58:00,
2013-05-27 06:03:00,72.9,65.7,29.71,South,187,11.0,13.0,78,0.00,,---,0.00,VWS V14.01,2013-05-27 11:03:00,
2013-05-27 06:08:00,72.8,65.9,29.71,SSE,149,13.0,17.0,79,0.00,,---,0.00,VWS V14.01,2013-05-27 11:08:00,
2013-05-27 06:13:00,72.7,65.8,29.71,SE,139,11.0,17.0,79,0.00,,---,0.00,VWS V14.01,2013-05-27 11:13:00,
2013-05-27 06:18:00,72.6,65.7,29.71,SSE,162,10.0,17.0,79,0.00,,---,0.00,VWS V14.01,2013-05-27 11:18:00,
2013-05-27 06:23:00,72.6,66.1,29.72,South,174,8.0,17.0,80,0.00,,---,0.00,VWS V14.01,2013-05-27 11:23:00,
2013-05-27 06:28:00,72.5,66.0,29.72,SE,131,9.0,17.0,80,0.00,,---,0.00,VWS V14.01,2013-05-27 11:28:00,
2013-05-27 06:33:00,72.4,65.9,29.71,SSE,152,15.0,20.0,80,0.00,,---,0.00,VWS V14.01,2013-05-27 11:33:00,
2013-05-27 06:38:00,72.4,65.9,29.71,SE,143,9.0,20.0,80,0.00,,---,0.00,VWS V14.01,2013-05-27 11:38:00,
2013-05-27 06:43:00,72.3,66.2,29.71,SE,127,13.0,20.0,81,0.00,,---,0.00,VWS V14.01,2013-05-27 11:43:00,
2013-05-27 06:49:00,72.3,66.2,29.72,SE,131,13.0,20.0,81,0.00,,---,0.00,VWS V14.01,2013-05-27 11:49:00,
2013-05-27 06:54:00,72.4,66.2,29.72,SE,134,11.0,20.0,81,0.00,,---,0.00,VWS V14.01,2013-05-27 11:54:00,
2013-05-27 06:59:00,72.6,66.4,29.72,SSE,165,13.0,20.0,81,0.00,,---,0.00,VWS V14.01,2013-05-27 11:59:00,
2013-05-27 07:04:00,72.7,66.5,29.72,SE,145,15.0,20.0,81,0.00,,---,0.00,VWS V14.01,2013-05-27 12:04:00,
2013-05-27 07:09:00,72.9,66.7,29.72,SSE,150,13.0,20.0,81,0.00,,---,0.00,VWS V14.01,2013-05-27 12:09:00,
2013-05-27 07:14:00,73.0,66.8,29.72,ESE,120,11.0,20.0,81,0.00,,---,0.00,VWS V14.01,2013-05-27 12:14:00,
2013-05-27 07:19:00,73.2,67.0,29.72,East,101,11.0,20.0,81,0.00,,---,0.00,VWS V14.01,2013-05-27 12:19:00,
2013-05-27 07:24:00,73.3,66.8,29.73,SE,146,9.0,20.0,80,0.00,,---,0.00,VWS V14.01,2013-05-27 12:24:00,
2013-05-27 07:29:00,73.5,67.0,29.73,SSE,152,9.0,20.0,80,0.00,,---,0.00,VWS V14.01,2013-05-27 12:29:00,
2013-05-27 07:34:00,73.7,67.2,29.73,SSE,154,18.0,18.0,80,0.00,,---,0.00,VWS V14.01,2013-05-27 12:34:00,
2013-05-27 07:39:00,73.9,67.3,29.74,South,169,11.0,21.0,80,0.00,,---,0.00,VWS V14.01,2013-05-27 12:39:00,
2013-05-27 07:44:00,73.8,67.2,29.74,SSE,159,7.0,21.0,80,0.00,,---,0.00,VWS V14.01,2013-05-27 12:44:00,
2013-05-27 07:49:00,73.9,67.3,29.73,SSE,156,13.0,21.0,80,0.00,,---,0.00,VWS V14.01,2013-05-27 12:49:00,
2013-05-27 07:55:00,74.2,67.3,29.73,SE,135,15.0,21.0,79,0.00,,---,0.00,VWS V14.01,2013-05-27 12:55:00,
2013-05-27 08:00:00,74.6,67.7,29.73,ESE,121,14.0,21.0,79,0.00,,---,0.00,VWS V14.01,2013-05-27 13:00:00,
2013-05-27 08:05:00,74.9,67.6,29.74,SW,219,7.0,17.0,78,0.00,,---,0.00,VWS V14.01,2013-05-27 13:05:00,
2013-05-27 08:10:00,75.3,68.0,29.74,South,187,16.0,17.0,78,0.00,,---,0.00,VWS V14.01,2013-05-27 13:10:00,
2013-05-27 08:15:00,75.7,68.0,29.74,SE,131,9.0,20.0,77,0.00,,---,0.00,VWS V14.01,2013-05-27 13:15:00,
2013-05-27 08:20:00,76.2,68.1,29.74,SSE,150,10.0,20.0,76,0.00,,---,0.00,VWS V14.01,2013-05-27 13:20:00,
2013-05-27 08:25:00,76.5,68.0,29.73,SSE,152,9.0,20.0,75,0.00,,---,0.00,VWS V14.01,2013-05-27 13:25:00,
2013-05-27 08:30:00,76.9,68.0,29.73,ESE,121,9.0,20.0,74,0.00,,---,0.00,VWS V14.01,2013-05-27 13:30:00,
2013-05-27 08:35:00,77.2,67.9,29.74,SSE,162,11.0,18.0,73,0.00,,---,0.00,VWS V14.01,2013-05-27 13:35:00,
2013-05-27 08:40:00,77.4,68.1,29.73,SSE,155,14.0,21.0,73,0.00,,---,0.00,VWS V14.01,2013-05-27 13:40:00,
2013-05-27 08:45:00,77.6,68.3,29.73,SSE,155,14.0,21.0,73,0.00,,---,0.00,VWS V14.01,2013-05-27 13:45:00,
2013-05-27 08:50:00,77.8,68.1,29.74,SE,125,11.0,21.0,72,0.00,,---,0.00,VWS V14.01,2013-05-27 13:50:00,
2013-05-27 08:55:00,77.7,68.0,29.74,SE,134,11.0,21.0,72,0.00,,---,0.00,VWS V14.01,2013-05-27 13:55:00,
2013-05-27 09:00:00,77.7,68.0,29.74,South,172,11.0,21.0,72,0.00,,---,0.00,VWS V14.01,2013-05-27 14:00:00,
2013-05-27 09:05:00,77.8,68.1,29.74,SE,134,12.0,20.0,72,0.00,,---,0.00,VWS V14.01,2013-05-27 14:05:00,
2013-05-27 09:10:00,78.0,68.2,29.74,SSW,194,9.0,20.0,72,0.00,,---,0.00,VWS V14.01,2013-05-27 14:10:00,
2013-05-27 09:16:00,78.5,68.3,29.74,SSE,148,15.0,20.0,71,0.00,,---,0.00,VWS V14.01,2013-05-27 14:16:00,
2013-05-27 09:21:00,79.0,68.4,29.73,SSE,160,14.0,26.0,70,0.00,,---,0.00,VWS V14.01,2013-05-27 14:21:00,
2013-05-27 09:26:00,79.4,68.8,29.73,SSW,204,13.0,26.0,70,0.00,,---,0.00,VWS V14.01,2013-05-27 14:26:00,
2013-05-27 09:31:00,79.7,68.6,29.73,SSE,147,15.0,15.0,69,0.00,,---,0.00,VWS V14.01,2013-05-27 14:31:00,
2013-05-27 09:36:00,80.2,68.3,29.73,SSE,152,15.0,22.0,67,0.00,,---,0.00,VWS V14.01,2013-05-27 14:36:00,
2013-05-27 09:41:00,80.6,68.2,29.74,SSE,153,10.0,27.0,66,0.00,,---,0.00,VWS V14.01,2013-05-27 14:41:00,
2013-05-27 09:46:00,81.2,68.8,29.73,SSW,194,16.0,27.0,66,0.00,,---,0.00,VWS V14.01,2013-05-27 14:46:00,
2013-05-27 09:51:00,82.0,69.1,29.73,South,173,9.0,27.0,65,0.00,,---,0.00,VWS V14.01,2013-05-27 14:51:00,
2013-05-27 09:56:00,82.1,68.3,29.73,South,173,12.0,27.0,63,0.00,,---,0.00,VWS V14.01,2013-05-27 14:56:00,
2013-05-27 10:01:00,82.0,68.6,29.73,SSE,159,11.0,17.0,64,0.00,,---,0.00,VWS V14.01,2013-05-27 15:01:00,
2013-05-27 10:06:00,82.7,68.8,29.72,SSE,166,17.0,21.0,63,0.00,,---,0.00,VWS V14.01,2013-05-27 15:06:00,
2013-05-27 10:11:00,82.7,68.8,29.72,SSW,198,10.0,21.0,63,0.00,,---,0.00,VWS V14.01,2013-05-27 15:11:00,
2013-05-27 10:16:00,83.1,68.3,29.72,WSW,242,18.0,24.0,61,0.00,,---,0.00,VWS V14.01,2013-05-27 15:16:00,
2013-05-27 10:22:00,83.5,68.7,29.72,SSW,198,18.0,24.0,61,0.00,,---,0.00,VWS V14.01,2013-05-27 15:22:00,
2013-05-27 10:27:00,84.0,68.1,29.71,SSW,200,13.0,25.0,59,0.00,,---,0.00,VWS V14.01,2013-05-27 15:27:00,
2013-05-27 10:32:00,83.9,68.1,29.71,SSE,147,10.0,24.0,59,0.00,,---,0.00,VWS V14.01,2013-05-27 15:32:00,
2013-05-27 10:37:00,83.9,68.1,29.71,SE,135,10.0,24.0,59,0.00,,---,0.00,VWS V14.01,2013-05-27 15:37:00,
2013-05-27 10:42:00,84.4,68.5,29.70,SSE,164,15.0,24.0,59,0.00,,---,0.00,VWS V14.01,2013-05-27 15:42:00,
2013-05-27 10:47:00,84.5,68.6,29.70,South,172,15.0,26.0,59,0.00,,---,0.00,VWS V14.01,2013-05-27 15:47:00,
2013-05-27 10:52:00,84.8,68.4,29.70,SSE,162,17.0,26.0,58,0.00,,---,0.00,VWS V14.01,2013-05-27 15:52:00,
2013-05-27 10:57:00,85.1,68.7,29.70,SSE,152,13.0,26.0,58,0.00,,---,0.00,VWS V14.01,2013-05-27 15:57:00,
2013-05-27 11:02:00,85.4,68.4,29.70,SSE,150,12.0,19.0,57,0.00,,---,0.00,VWS V14.01,2013-05-27 16:02:00,
2013-05-27 11:07:00,86.0,68.0,29.70,SE,134,16.0,25.0,55,0.00,,---,0.00,VWS V14.01,2013-05-27 16:07:00,
2013-05-27 11:12:00,86.1,68.1,29.70,SW,216,20.0,25.0,55,0.00,,---,0.00,VWS V14.01,2013-05-27 16:12:00,
2013-05-27 11:17:00,86.6,68.5,29.70,SSE,160,19.0,25.0,55,0.00,,---,0.00,VWS V14.01,2013-05-27 16:17:00,
2013-05-27 11:22:00,86.6,68.5,29.70,SSE,148,15.0,25.0,55,0.00,,---,0.00,VWS V14.01,2013-05-27 16:22:00,
2013-05-27 11:28:00,86.7,68.6,29.69,SSE,148,17.0,31.0,55,0.00,,---,0.00,VWS V14.01,2013-05-27 16:28:00,
2013-05-27 11:33:00,87.0,68.4,29.69,SSE,152,12.0,21.0,54,0.00,,---,0.00,VWS V14.01,2013-05-27 16:33:00,
2013-05-27 11:38:00,87.3,68.1,29.69,SSE,155,18.0,24.0,53,0.00,,---,0.00,VWS V14.01,2013-05-27 16:38:00,
2013-05-27 11:43:00,87.5,68.3,29.69,South,183,10.0,24.0,53,0.00,,---,0.00,VWS V14.01,2013-05-27 16:43:00,
2013-05-27 11:48:00,87.8,68.6,29.69,South,169,14.0,24.0,53,0.00,,---,0.00,VWS V14.01,2013-05-27 16:48:00,
2013-05-27 11:53:00,88.0,68.7,29.69,SSW,213,8.0,24.0,53,0.00,,---,0.00,VWS V14.01,2013-05-27 16:53:00,
2013-05-27 11:58:00,87.7,67.9,29.69,South,174,6.0,24.0,52,0.00,,---,0.00,VWS V14.01,2013-05-27 16:58:00,
2013-05-27 12:03:00,87.8,68.0,29.68,SE,137,20.0,27.0,52,0.00,,---,0.00,VWS V14.01,2013-05-27 17:03:00,
2013-05-27 12:08:00,87.4,67.6,29.68,SSE,162,14.0,27.0,52,0.00,,---,0.00,VWS V14.01,2013-05-27 17:08:00,
2013-05-27 12:13:00,87.3,67.5,29.68,SE,146,12.0,27.0,52,0.00,,---,0.00,VWS V14.01,2013-05-27 17:13:00,
2013-05-27 12:18:00,88.0,68.2,29.68,SSE,162,15.0,27.0,52,0.00,,---,0.00,VWS V14.01,2013-05-27 17:18:00,
2013-05-27 12:23:00,88.8,68.4,29.67,ESE,121,13.0,27.0,51,0.00,,---,0.00,VWS V14.01,2013-05-27 17:23:00,
2013-05-27 12:28:00,89.3,68.2,29.67,SE,143,15.0,27.0,50,0.00,,---,0.00,VWS V14.01,2013-05-27 17:28:00,
2013-05-27 12:33:00,90.3,68.0,29.67,SE,141,12.0,27.0,48,0.00,,---,0.00,VWS V14.01,2013-05-27 17:33:00,
2013-05-27 12:39:00,89.2,67.0,29.67,SSE,163,17.0,27.0,48,0.00,,---,0.00,VWS V14.01,2013-05-27 17:39:00,
2013-05-27 12:44:00,88.7,66.5,29.65,SSE,148,18.0,28.0,48,0.00,,---,0.00,VWS V14.01,2013-05-27 17:44:00,
2013-05-27 12:49:00,88.5,66.3,29.65,SE,145,15.0,28.0,48,0.00,,---,0.00,VWS V14.01,2013-05-27 17:49:00,
2013-05-27 12:54:00,88.6,67.0,29.65,South,172,20.0,28.0,49,0.00,,---,0.00,VWS V14.01,2013-05-27 17:54:00,
2013-05-27 12:59:00,89.6,67.3,29.66,SSW,193,20.0,28.0,48,0.00,,---,0.00,VWS V14.01,2013-05-27 17:59:00,
2013-05-27 13:04:00,90.8,66.6,29.65,South,174,19.0,25.0,45,0.00,,---,0.00,VWS V14.01,2013-05-27 18:04:00,
2013-05-27 13:09:00,91.2,66.9,29.65,SSE,150,23.0,28.0,45,0.00,,---,0.00,VWS V14.01,2013-05-27 18:09:00,
2013-05-27 13:14:00,91.8,66.8,29.65,SE,145,17.0,28.0,44,0.00,,---,0.00,VWS V14.01,2013-05-27 18:14:00,
2013-05-27 13:19:00,92.0,67.0,29.65,South,188,20.0,31.0,44,0.00,,---,0.00,VWS V14.01,2013-05-27 18:19:00,
2013-05-27 13:24:00,92.0,67.0,29.64,ESE,121,16.0,31.0,44,0.00,,---,0.00,VWS V14.01,2013-05-27 18:24:00,
2013-05-27 13:29:00,92.4,66.7,29.64,South,176,18.0,31.0,43,0.00,,---,0.00,VWS V14.01,2013-05-27 18:29:00,
2013-05-27 13:34:00,93.0,66.5,29.63,SSE,159,13.0,27.0,42,0.00,,---,0.00,VWS V14.01,2013-05-27 18:34:00,
2013-05-27 13:39:00,93.2,66.0,29.63,SSE,165,29.0,31.0,41,0.00,,---,0.00,VWS V14.01,2013-05-27 18:39:00,
2013-05-27 13:44:00,93.1,66.6,29.63,SSE,151,20.0,31.0,42,0.00,,---,0.00,VWS V14.01,2013-05-27 18:44:00,
2013-05-27 13:50:00,93.2,66.0,29.63,SSE,153,13.0,31.0,41,0.00,,---,0.00,VWS V14.01,2013-05-27 18:50:00,
2013-05-27 13:55:00,93.5,67.0,29.62,SSE,167,19.0,31.0,42,0.00,,---,0.00,VWS V14.01,2013-05-27 18:55:00,
2013-05-27 14:00:00,93.9,66.6,29.62,East,101,20.0,31.0,41,0.00,,---,0.00,VWS V14.01,2013-05-27 19:00:00,
2013-05-27 14:05:00,94.0,66.7,29.62,SE,139,20.0,25.0,41,0.00,,---,0.00,VWS V14.01,2013-05-27 19:05:00,
2013-05-27 14:10:00,94.7,66.6,29.62,South,177,25.0,30.0,40,0.00,,---,0.00,VWS V14.01,2013-05-27 19:10:00,
2013-05-27 14:15:00,94.5,66.5,29.62,South,189,8.0,30.0,40,0.00,,---,0.00,VWS V14.01,2013-05-27 19:15:00,
2013-05-27 14:20:00,94.4,66.4,29.61,South,172,13.0,30.0,40,0.00,,---,0.00,VWS V14.01,2013-05-27 19:20:00,
2013-05-27 14:25:00,94.6,66.6,29.61,SSE,158,18.0,30.0,40,0.00,,---,0.00,VWS V14.01,2013-05-27 19:25:00,
2013-05-27 14:30:00,95.1,65.5,29.61,SW,224,19.0,30.0,38,0.00,,---,0.00,VWS V14.01,2013-05-27 19:30:00,
2013-05-27 14:35:00,95.8,66.1,29.60,SE,145,18.0,24.0,38,0.00,,---,0.00,VWS V14.01,2013-05-27 19:35:00,
2013-05-27 14:40:00,95.7,66.1,29.60,SSW,195,18.0,33.0,38,0.00,,---,0.00,VWS V14.01,2013-05-27 19:40:00,
2013-05-27 14:45:00,95.7,66.1,29.60,SE,145,17.0,33.0,38,0.00,,---,0.00,VWS V14.01,2013-05-27 19:45:00,
2013-05-27 14:51:00,95.7,66.8,29.60,SSE,162,25.0,33.0,39,0.00,,---,0.00,VWS V14.01,2013-05-27 19:51:00,
2013-05-27 14:56:00,95.6,66.0,29.60,South,187,19.0,33.0,38,0.00,,---,0.00,VWS V14.01,2013-05-27 19:56:00,
2013-05-27 15:01:00,96.1,65.6,29.60,SSE,152,21.0,22.0,37,0.00,,---,0.00,VWS V14.01,2013-05-27 20:01:00,
2013-05-27 15:06:00,96.1,65.6,29.59,SE,135,24.0,29.0,37,0.00,,---,0.00,VWS V14.01,2013-05-27 20:06:00,
2013-05-27 15:11:00,96.0,66.3,29.59,SE,136,16.0,29.0,38,0.00,,---,0.00,VWS V14.01,2013-05-27 20:11:00,
2013-05-27 15:16:00,96.2,66.5,29.59,SSE,165,14.0,29.0,38,0.00,,---,0.00,VWS V14.01,2013-05-27 20:16:00,
2013-05-27 15:21:00,96.1,66.4,29.59,SSE,153,20.0,29.0,38,0.00,,---,0.00,VWS V14.01,2013-05-27 20:21:00,
2013-05-27 15:26:00,95.9,66.2,29.58,ESE,115,25.0,32.0,38,0.00,,---,0.00,VWS V14.01,2013-05-27 20:26:00,
2013-05-27 15:31:00,96.0,66.3,29.58,South,179,21.0,25.0,38,0.00,,---,0.00,VWS V14.01,2013-05-27 20:31:00,
2013-05-27 15:36:00,96.1,65.6,29.58,SE,127,18.0,31.0,37,0.00,,---,0.00,VWS V14.01,2013-05-27 20:36:00,
2013-05-27 15:41:00,95.9,66.2,29.58,SSE,165,14.0,31.0,38,0.00,,---,0.00,VWS V14.01,2013-05-27 20:41:00,
2013-05-27 15:46:00,96.1,66.4,29.58,SE,146,15.0,31.0,38,0.00,,---,0.00,VWS V14.01,2013-05-27 20:46:00,
2013-05-27 15:51:00,96.4,65.9,29.58,ESE,118,15.0,31.0,37,0.00,,---,0.00,VWS V14.01,2013-05-27 20:51:00,
2013-05-27 15:56:00,96.5,66.0,29.57,SE,146,22.0,31.0,37,0.00,,---,0.00,VWS V14.01,2013-05-27 20:56:00,
2013-05-27 16:01:00,96.3,65.8,29.57,SE,146,18.0,26.0,37,0.00,,---,0.00,VWS V14.01,2013-05-27 21:01:00,
2013-05-27 16:07:00,96.4,65.9,29.57,SSE,152,32.0,32.0,37,0.00,,---,0.00,VWS V14.01,2013-05-27 21:07:00,
2013-05-27 16:12:00,95.8,65.4,29.56,SSW,195,18.0,35.0,37,0.00,,---,0.00,VWS V14.01,2013-05-27 21:12:00,
2013-05-27 16:17:00,95.5,65.9,29.57,SSE,148,24.0,35.0,38,0.00,,---,0.00,VWS V14.01,2013-05-27 21:17:00,
2013-05-27 16:22:00,95.4,65.8,29.56,South,187,12.0,35.0,38,0.00,,---,0.00,VWS V14.01,2013-05-27 21:22:00,
2013-05-27 16:27:00,96.2,65.7,29.56,SSE,160,17.0,35.0,37,0.00,,---,0.00,VWS V14.01,2013-05-27 21:27:00,
2013-05-27 16:32:00,96.3,65.8,29.56,East,101,19.0,26.0,37,0.00,,---,0.00,VWS V14.01,2013-05-27 21:32:00,
2013-05-27 16:37:00,96.4,65.9,29.56,SE,127,25.0,31.0,37,0.00,,---,0.00,VWS V14.01,2013-05-27 21:37:00,
2013-05-27 16:42:00,96.6,66.1,29.55,SSE,162,19.0,31.0,37,0.00,,---,0.00,VWS V14.01,2013-05-27 21:42:00,
2013-05-27 16:47:00,97.1,65.7,29.55,SE,138,12.0,31.0,36,0.00,,---,0.00,VWS V14.01,2013-05-27 21:47:00,
2013-05-27 16:52:00,97.1,65.7,29.55,SE,131,21.0,31.0,36,0.00,,---,0.00,VWS V14.01,2013-05-27 21:52:00,
2013-05-27 16:57:00,96.4,65.9,29.54,SE,132,21.0,31.0,37,0.00,,---,0.00,VWS V14.01,2013-05-27 21:57:00,
2013-05-27 17:02:00,96.2,65.7,29.54,SSW,204,17.0,24.0,37,0.00,,---,0.00,VWS V14.01,2013-05-27 22:02:00,
2013-05-27 17:07:00,96.4,65.9,29.54,SSE,153,18.0,31.0,37,0.00,,---,0.00,VWS V14.01,2013-05-27 22:07:00,
2013-05-27 17:12:00,96.4,65.9,29.53,SSE,158,15.0,31.0,37,0.00,,---,0.00,VWS V14.01,2013-05-27 22:12:00,
2013-05-27 17:17:00,95.4,65.0,29.54,South,169,19.0,31.0,37,0.00,,---,0.00,VWS V14.01,2013-05-27 22:17:00,
2013-05-27 17:22:00,94.9,65.3,29.54,SSE,162,15.0,31.0,38,0.00,,---,0.00,VWS V14.01,2013-05-27 22:22:00,
2013-05-27 17:28:00,95.3,65.7,29.53,SSE,152,26.0,33.0,38,0.00,,---,0.00,VWS V14.01,2013-05-27 22:28:00,
2013-05-27 17:33:00,95.0,65.4,29.53,SSW,193,21.0,29.0,38,0.00,,---,0.00,VWS V14.01,2013-05-27 22:33:00,
2013-05-27 17:38:00,94.5,65.7,29.52,SSE,159,12.0,29.0,39,0.00,,---,0.00,VWS V14.01,2013-05-27 22:38:00,
2013-05-27 17:43:00,93.8,65.1,29.52,ESE,117,16.0,29.0,39,0.00,,---,0.00,VWS V14.01,2013-05-27 22:43:00,
2013-05-27 17:48:00,93.4,65.5,29.52,SSE,160,18.0,29.0,40,0.00,,---,0.00,VWS V14.01,2013-05-27 22:48:00,
2013-05-27 17:53:00,92.9,66.4,29.52,South,177,8.0,29.0,42,0.00,,---,0.00,VWS V14.01,2013-05-27 22:53:00,
2013-05-27 17:58:00,92.5,65.4,29.52,SE,136,25.0,29.0,41,0.00,,---,0.00,VWS V14.01,2013-05-27 22:58:00,
2013-05-27 18:03:00,92.1,65.7,29.52,SE,124,24.0,31.0,42,0.00,,---,0.00,VWS V14.01,2013-05-27 23:03:00,
2013-05-27 18:08:00,91.5,65.9,29.52,SSE,159,12.0,31.0,43,0.00,,---,0.00,VWS V14.01,2013-05-27 23:08:00,
2013-05-27 18:13:00,91.1,66.2,29.53,SE,139,13.0,31.0,44,0.00,,---,0.00,VWS V14.01,2013-05-27 23:13:00,
2013-05-27 18:18:00,90.9,66.6,29.53,SE,129,17.0,31.0,45,0.00,,---,0.00,VWS V14.01,2013-05-27 23:18:00,
2013-05-27 18:23:00,90.5,66.3,29.53,SE,145,18.0,31.0,45,0.00,,---,0.00,VWS V14.01,2013-05-27 23:23:00,
2013-05-27 18:28:00,90.0,66.5,29.54,SE,135,16.0,32.0,46,0.00,,---,0.00,VWS V14.01,2013-05-27 23:28:00,
2013-05-27 18:33:00,89.6,66.7,29.55,SSE,156,15.0,28.0,47,0.00,,---,0.00,VWS V14.01,2013-05-27 23:33:00,
2013-05-27 18:38:00,89.4,66.5,29.56,SSE,162,25.0,29.0,47,0.00,,---,0.00,VWS V14.01,2013-05-27 23:38:00,
2013-05-27 18:44:00,89.2,66.3,29.57,SE,127,18.0,29.0,47,0.00,,---,0.00,VWS V14.01,2013-05-27 23:44:00,
2013-05-27 18:49:00,89.1,66.9,29.56,SE,143,11.0,29.0,48,0.00,,---,0.00,VWS V14.01,2013-05-27 23:49:00,
2013-05-27 18:54:00,88.9,66.7,29.57,SE,131,10.0,29.0,48,0.00,,---,0.00,VWS V14.01,2013-05-27 23:54:00,
2013-05-27 18:59:00,88.8,66.6,29.58,SSE,156,17.0,29.0,48,0.00,,---,0.00,VWS V14.01,2013-05-27 23:59:00,
2013-05-27 19:04:00,88.7,66.5,29.59,SSW,195,10.0,20.0,48,0.00,,---,0.00,VWS V14.01,2013-05-28 00:04:00,
2013-05-27 19:09:00,88.6,67.0,29.60,SE,136,19.0,22.0,49,0.00,,---,0.00,VWS V14.01,2013-05-28 00:09:00,
2013-05-27 19:14:00,88.4,66.8,29.59,SE,142,12.0,22.0,49,0.00,,---,0.00,VWS V14.01,2013-05-28 00:14:00,
2013-05-27 19:19:00,88.3,66.7,29.59,SE,131,11.0,22.0,49,0.00,,---,0.00,VWS V14.01,2013-05-28 00:19:00,
2013-05-27 19:24:00,88.1,67.1,29.58,SSE,155,16.0,25.0,50,0.00,,---,0.00,VWS V14.01,2013-05-28 00:24:00,
2013-05-27 19:29:00,88.0,67.1,29.57,SE,131,18.0,25.0,50,0.00,,---,0.00,VWS V14.01,2013-05-28 00:29:00,
2013-05-27 19:34:00,88.0,67.1,29.53,ESE,117,21.0,25.0,50,0.00,,---,0.00,VWS V14.01,2013-05-28 00:34:00,
2013-05-27 19:39:00,88.4,67.4,29.55,SSE,162,16.0,27.0,50,0.00,,---,0.00,VWS V14.01,2013-05-28 00:39:00,
2013-05-27 19:44:00,88.8,67.2,29.55,ESE,121,21.0,28.0,49,0.00,,---,0.00,VWS V14.01,2013-05-28 00:44:00,
2013-05-27 19:50:00,88.9,66.7,29.54,ESE,114,15.0,28.0,48,0.00,,---,0.00,VWS V14.01,2013-05-28 00:50:00,
2013-05-27 19:55:00,88.9,66.7,29.54,SSE,148,18.0,28.0,48,0.00,,---,0.00,VWS V14.01,2013-05-28 00:55:00,
2013-05-27 20:00:00,88.7,67.1,29.56,South,174,15.0,28.0,49,0.00,,---,0.00,VWS V14.01,2013-05-28 01:00:00,
2013-05-27 20:05:00,88.3,66.7,29.55,SE,131,20.0,29.0,49,0.00,,---,0.00,VWS V14.01,2013-05-28 01:05:00,
2013-05-27 20:10:00,87.8,66.9,29.55,SE,133,14.0,29.0,50,0.00,,---,0.00,VWS V14.01,2013-05-28 01:10:00,
2013-05-27 20:15:00,87.2,66.3,29.53,SE,135,24.0,29.0,50,0.00,,---,0.00,VWS V14.01,2013-05-28 01:15:00,
2013-05-27 20:20:00,86.7,66.4,29.54,ESE,121,12.0,29.0,51,0.00,,---,0.00,VWS V14.01,2013-05-28 01:20:00,
2013-05-27 20:25:00,86.3,66.1,29.56,SSE,150,16.0,30.0,51,0.00,,---,0.00,VWS V14.01,2013-05-28 01:25:00,
2013-05-27 20:30:00,86.2,66.0,29.57,SE,136,27.0,30.0,51,0.00,,---,0.00,VWS V14.01,2013-05-28 01:30:00,
2013-05-27 20:35:00,86.1,66.4,29.57,SE,136,14.0,27.0,52,0.00,,---,0.00,VWS V14.01,2013-05-28 01:35:00,
2013-05-27 20:40:00,85.8,66.7,29.57,ESE,113,12.0,27.0,53,0.00,,---,0.00,VWS V14.01,2013-05-28 01:40:00,
2013-05-27 20:45:00,85.5,67.0,29.56,SE,135,11.0,27.0,54,0.00,,---,0.00,VWS V14.01,2013-05-28 01:45:00,
2013-05-27 20:50:00,85.5,67.5,29.56,SSE,149,19.0,29.0,55,0.00,,---,0.00,VWS V14.01,2013-05-28 01:50:00,
2013-05-27 20:55:00,85.3,67.3,29.56,East,98,15.0,29.0,55,0.00,,---,0.00,VWS V14.01,2013-05-28 01:55:00,
2013-05-27 21:01:00,85.1,68.2,29.57,SE,134,8.0,12.0,57,0.00,,---,0.00,VWS V14.01,2013-05-28 02:01:00,
2013-05-27 21:06:00,84.7,68.3,29.58,ESE,120,7.0,22.0,58,0.00,,---,0.00,VWS V14.01,2013-05-28 02:06:00,
2013-05-27 21:11:00,84.3,67.4,29.58,ESE,113,9.0,22.0,57,0.00,,---,0.00,VWS V14.01,2013-05-28 02:11:00,
2013-05-27 21:16:00,84.2,67.3,29.57,SE,142,21.0,22.0,57,0.00,,---,0.00,VWS V14.01,2013-05-28 02:16:00,
2013-05-27 21:21:00,84.1,67.2,29.57,South,169,14.0,27.0,57,0.00,,---,0.00,VWS V14.01,2013-05-28 02:21:00,
2013-05-27 21:26:00,83.9,67.1,29.57,ESE,114,8.0,28.0,57,0.00,,---,0.00,VWS V14.01,2013-05-28 02:26:00,
2013-05-27 21:31:00,83.8,67.0,29.56,ESE,108,9.0,14.0,57,0.00,,---,0.00,VWS V14.01,2013-05-28 02:31:00,
2013-05-27 21:36:00,83.4,67.6,29.56,SE,127,10.0,20.0,59,0.00,,---,0.00,VWS V14.01,2013-05-28 02:36:00,
2013-05-27 21:41:00,83.1,67.8,29.56,East,95,11.0,23.0,60,0.00,,---,0.00,VWS V14.01,2013-05-28 02:41:00,
2013-05-27 21:46:00,82.7,67.9,29.56,SE,141,10.0,25.0,61,0.00,,---,0.00,VWS V14.01,2013-05-28 02:46:00,
2013-05-27 21:51:00,82.5,68.2,29.56,SSE,149,18.0,26.0,62,0.00,,---,0.00,VWS V14.01,2013-05-28 02:51:00,
2013-05-27 21:56:00,82.4,68.1,29.57,SSE,148,16.0,26.0,62,0.00,,---,0.00,VWS V14.01,2013-05-28 02:56:00,
2013-05-27 22:02:00,82.2,68.4,29.56,SSE,165,17.0,19.0,63,0.00,,---,0.00,VWS V14.01,2013-05-28 03:02:00,
2013-05-27 22:07:00,82.0,68.2,29.56,SE,145,27.0,30.0,63,0.00,,---,0.00,VWS V14.01,2013-05-28 03:07:00,
2013-05-27 22:12:00,81.8,68.4,29.56,SE,142,12.0,30.0,64,0.00,,---,0.00,VWS V14.01,2013-05-28 03:12:00,
2013-05-27 22:17:00,81.9,68.5,29.56,SSE,152,22.0,33.0,64,0.00,,---,0.00,VWS V14.01,2013-05-28 03:17:00,
2013-05-27 22:22:00,81.7,68.3,29.54,SE,136,22.0,33.0,64,0.00,,---,0.00,VWS V14.01,2013-05-28 03:22:00,
2013-05-27 22:27:00,81.6,68.7,29.54,South,184,31.0,37.0,65,0.00,,---,0.00,VWS V14.01,2013-05-28 03:27:00,
2013-05-27 22:32:00,81.2,68.3,29.54,SSE,152,36.0,37.0,65,0.00,,---,0.00,VWS V14.01,2013-05-28 03:32:00,
2013-05-27 22:37:00,81.4,68.5,29.55,ESE,114,21.0,37.0,65,0.00,,---,0.00,VWS V14.01,2013-05-28 03:37:00,
2013-05-27 22:42:00,81.5,68.6,29.56,SSE,148,28.0,37.0,65,0.00,,---,0.00,VWS V14.01,2013-05-28 03:42:00,
2013-05-27 22:47:00,81.4,68.5,29.56,SE,142,33.0,37.0,65,0.00,,---,0.00,VWS V14.01,2013-05-28 03:47:00,
2013-05-27 22:52:00,81.4,68.5,29.57,SE,136,30.0,37.0,65,0.00,,---,0.00,VWS V14.01,2013-05-28 03:52:00,
2013-05-27 22:57:00,81.5,68.2,29.57,SSE,148,25.0,37.0,64,0.00,,---,0.00,VWS V14.01,2013-05-28 03:57:00,
2013-05-27 23:01:00,81.6,68.2,29.57,SE,142,28.0,28.0,64,0.00,,---,0.00,VWS V14.01,2013-05-28 04:01:00,
2013-05-27 23:03:00,81.6,68.2,29.58,SE,138,16.0,28.0,64,0.00,,---,0.00,VWS V14.01,2013-05-28 04:03:00,
2013-05-27 23:05:00,81.5,68.2,29.58,SSE,152,14.0,28.0,64,0.00,,---,0.00,VWS V14.01,2013-05-28 04:05:00,
2013-05-27 23:10:00,81.5,68.2,29.58,SE,143,19.0,33.0,64,0.00,,---,0.00,VWS V14.01,2013-05-28 04:10:00,
2013-05-27 23:15:00,81.4,68.1,29.59,SE,138,14.0,33.0,64,0.00,,---,0.00,VWS V14.01,2013-05-28 04:15:00,
2013-05-27 23:20:00,81.2,68.3,29.58,SE,141,17.0,35.0,65,0.00,,---,0.00,VWS V14.01,2013-05-28 04:20:00,
2013-05-27 23:25:00,81.0,68.1,29.59,South,172,17.0,35.0,65,0.00,,---,0.00,VWS V14.01,2013-05-28 04:25:00,
2013-05-27 23:31:00,80.8,67.9,29.59,SE,129,15.0,18.0,65,0.00,,---,0.00,VWS V14.01,2013-05-28 04:31:00,
2013-05-27 23:36:00,80.8,67.9,29.59,SSW,193,14.0,25.0,65,0.00,,---,0.00,VWS V14.01,2013-05-28 04:36:00,
2013-05-27 23:41:00,80.7,67.8,29.60,SSE,156,10.0,25.0,65,0.00,,---,0.00,VWS V14.01,2013-05-28 04:41:00,
2013-05-27 23:46:00,80.7,67.8,29.60,SE,146,11.0,25.0,65,0.00,,---,0.00,VWS V14.01,2013-05-28 04:46:00,
2013-05-27 23:51:00,80.6,67.8,29.60,SSE,147,17.0,25.0,65,0.00,,---,0.00,VWS V14.01,2013-05-28 04:51:00,
2013-05-27 23:56:00,80.6,67.8,29.59,SSE,155,13.0,25.0,65,0.00,,---,0.00,VWS V14.01,2013-05-28 04:56:00,